Weather History for Angel Fire, NM

Change the Weather History Date:

Friday, March 28, 2014

  Actual Average (KSKX) Record (KSKX)
Temperature  
Mean Temperature 36 °F -  
Max Temperature 48 °F 56 °F 68 °F (2012)
Min Temperature 25 °F 24 °F 0 °F (2009)
Degree Days  
Heating Degree Days 28    
Moisture  
Dew Point 15 °F    
Average Humidity 42    
Maximum Humidity 66    
Minimum Humidity 20    
Precipitation  
Precipitation 0.00 in - - ()
Sea Level Pressure  
Sea Level Pressure 30.08 in    
Wind  
Wind Speed 9 mph (WSW)    
Max Wind Speed 23 mph    
Max Gust Speed 32 mph    
Visibility 10 miles    
Events      
Averages and records for this station are not official NWS values.
T = Trace of Precipitation, MM = Missing Value Source: NWS Daily Summary

Daily Weather History Graph

Daily Weather History Graph

Search for Another Location

Airport:

Trip Planner

Search our weather history database for the weather conditions in past years. The results will help you decide how hot, cold, wet, or windy it might be!

Date:

Astronomy

Mar. 28, 2014 Rise Set
Actual Time 6:52 AM MDT 7:19 PM MDT
Civil Twilight 6:27 AM MDT 7:45 PM MDT
Nautical Twilight 5:56 AM MDT 8:16 PM MDT
Astronomical Twilight 5:25 AM MDT 8:47 PM MDT
Moon 5:21 AM MDT (3/28) 5:22 PM MDT (3/28)
Length of Visible Light 13h 18m
Length of Day
12h 26m
Waning Crescent, 6% of the Moon is Illuminated
Mar 28
Waning Crescent
Mar 30
New
Apr 7
First Quarter
Apr 15
Full
Apr 22
Last Quarter

Hourly Weather History & Observations

Time (MDT) Temp. Windchill Dew Point Humidity Pressure Visibility Wind Dir Wind Speed Gust Speed Precip Events Conditions
12:15 AM 36.1 °F 33.5 °F 15.4 °F 43% 29.93 in 10.0 mi South 3.5 mph - N/A   Clear
12:35 AM 34.3 °F 29.2 °F 16.9 °F 49% 29.93 in 10.0 mi SW 5.8 mph - N/A   Clear
12:55 AM 34.3 °F 29.2 °F 17.1 °F 49% 29.93 in 10.0 mi SW 5.8 mph - N/A   Clear
1:15 AM 32.9 °F 27.5 °F 17.6 °F 53% 29.94 in 10.0 mi WSW 5.8 mph - N/A   Clear
1:35 AM 33.8 °F - 17.2 °F 51% 29.95 in 10.0 mi Calm Calm - N/A   Clear
1:55 AM 34.7 °F 28.8 °F 16.9 °F 48% 29.95 in 10.0 mi West 6.9 mph 16.1 mph N/A   Mostly Cloudy
2:15 AM 33.8 °F 27.0 °F 17.6 °F 52% 29.95 in 10.0 mi West 8.1 mph - N/A   Mostly Cloudy
2:35 AM 34.0 °F 25.5 °F 17.4 °F 51% 29.95 in 10.0 mi West 11.5 mph - N/A   Scattered Clouds
2:55 AM 33.6 °F 26.8 °F 17.4 °F 52% 29.94 in 10.0 mi WSW 8.1 mph 23.0 mph N/A   Clear
3:15 AM 33.1 °F 26.9 °F 17.2 °F 52% 29.94 in 10.0 mi SSW 6.9 mph - N/A   Clear
3:35 AM 33.8 °F - 16.7 °F 50% 29.94 in 10.0 mi Calm Calm - N/A   Scattered Clouds
3:55 AM 33.6 °F 29.4 °F 16.7 °F 50% 29.94 in 10.0 mi WSW 4.6 mph - N/A   Scattered Clouds
4:20 AM 33.6 °F 26.8 °F 17.1 °F 51% 29.95 in 10.0 mi West 8.1 mph - N/A   Clear
4:35 AM 33.3 °F 30.2 °F 16.7 °F 51% 29.95 in 10.0 mi West 3.5 mph - N/A   Clear
4:55 AM 32.7 °F 25.7 °F 17.1 °F 53% 29.96 in 10.0 mi West 8.1 mph - N/A   Clear
5:15 AM 32.4 °F 26.0 °F 17.6 °F 55% 29.97 in 10.0 mi West 6.9 mph 17.3 mph N/A   Clear
5:35 AM 32.2 °F 28.9 °F 17.2 °F 54% 29.97 in 10.0 mi South 3.5 mph - N/A   Clear
6:15 AM 31.8 °F 25.4 °F 17.1 °F 55% 29.99 in 10.0 mi West 6.9 mph 10.4 mph N/A   Clear
6:35 AM 31.1 °F 24.5 °F 17.1 °F 56% 30.00 in 10.0 mi West 6.9 mph - N/A   Clear
6:55 AM 30.9 °F 23.5 °F 16.9 °F 56% 30.00 in 10.0 mi WSW 8.1 mph - N/A   Clear
7:15 AM 30.4 °F - 17.4 °F 59% 30.01 in 10.0 mi Calm Calm - N/A   Clear
7:35 AM 30.0 °F - 18.3 °F 62% 30.02 in 10.0 mi Calm Calm - N/A   Clear
7:55 AM 32.0 °F 24.8 °F 18.5 °F 58% 30.03 in 10.0 mi WNW 8.1 mph - N/A   Clear
8:15 AM 32.5 °F 23.2 °F 18.7 °F 57% 30.04 in 10.0 mi West 12.7 mph 17.3 mph N/A   Clear
8:35 AM 33.3 °F 25.1 °F 18.7 °F 55% 30.06 in 10.0 mi WNW 10.4 mph 26.5 mph N/A   Clear
8:55 AM 33.6 °F 26.2 °F 19.0 °F 55% 30.07 in 10.0 mi West 9.2 mph 18.4 mph N/A   Scattered Clouds
9:15 AM 34.0 °F 25.0 °F 18.7 °F 54% 30.07 in 10.0 mi West 12.7 mph 21.9 mph N/A   Mostly Cloudy
9:35 AM 33.8 °F 23.5 °F 18.9 °F 54% 30.07 in 10.0 mi WSW 16.1 mph 25.3 mph N/A   Scattered Clouds
9:55 AM 35.2 °F 25.0 °F 19.6 °F 53% 30.08 in 10.0 mi West 17.3 mph 24.2 mph N/A   Scattered Clouds
10:15 AM 36.1 °F 26.9 °F 20.1 °F 52% 30.08 in 10.0 mi WSW 15.0 mph 21.9 mph N/A   Scattered Clouds
10:30 AM 37.4 °F 27.2 °F 20.5 °F 51% 30.09 in 10.0 mi WSW 19.6 mph 25.3 mph N/A   Scattered Clouds
10:55 AM 38.7 °F 29.8 °F 20.5 °F 48% 30.09 in 10.0 mi West 16.1 mph 23.0 mph N/A   Scattered Clouds
11:15 AM 38.7 °F 29.1 °F 18.3 °F 44% 30.09 in 10.0 mi West 18.4 mph 23.0 mph N/A   Clear
11:35 AM 40.1 °F 30.7 °F 18.5 °F 42% 30.10 in 10.0 mi WSW 19.6 mph 27.6 mph N/A   Scattered Clouds
11:55 AM 40.6 °F 31.4 °F 17.1 °F 39% 30.10 in 10.0 mi WSW 19.6 mph 31.1 mph N/A   Scattered Clouds
12:15 PM 42.1 °F 33.1 °F 17.8 °F 38% 30.10 in 10.0 mi WSW 20.7 mph 27.6 mph N/A   Scattered Clouds
12:35 PM 42.4 °F 36.1 °F 16.2 °F 35% 30.10 in 10.0 mi SW 11.5 mph 24.2 mph N/A   Scattered Clouds
12:55 PM 43.2 °F 35.0 °F 18.9 °F 38% 30.10 in 10.0 mi WNW 18.4 mph 24.2 mph N/A   Clear
1:15 PM 43.9 °F 37.9 °F 15.8 °F 32% 30.10 in 10.0 mi WSW 11.5 mph 24.2 mph N/A   Clear
1:35 PM 45.5 °F 39.6 °F 14.9 °F 29% 30.09 in 10.0 mi WNW 12.7 mph 25.3 mph N/A   Clear
1:55 PM 45.3 °F 37.8 °F 11.7 °F 26% 30.10 in 10.0 mi West 18.4 mph 27.6 mph N/A   Clear
2:15 PM 45.9 °F 37.6 °F 10.8 °F 24% 30.10 in 10.0 mi West 23.0 mph 31.1 mph N/A   Clear
2:35 PM 47.3 °F - 11.5 °F 24% 30.10 in 10.0 mi West 20.7 mph 32.2 mph N/A   Clear
2:55 PM 47.5 °F - 10.6 °F 23% 30.10 in 10.0 mi WSW 18.4 mph 31.1 mph N/A   Clear
3:15 PM 46.9 °F - 7.9 °F 20% 30.10 in 10.0 mi WSW 18.4 mph 32.2 mph N/A   Clear
3:35 PM 48.2 °F - 8.1 °F 20% 30.10 in 10.0 mi West 23.0 mph 32.2 mph N/A   Clear
3:55 PM 48.2 °F - 8.6 °F 20% 30.10 in 10.0 mi West 23.0 mph 28.8 mph N/A   Clear
4:15 PM 47.1 °F - 7.7 °F 20% 30.11 in 10.0 mi West 18.4 mph 29.9 mph N/A   Clear
4:35 PM 47.8 °F - 7.9 °F 20% 30.11 in 10.0 mi WSW 17.3 mph 28.8 mph N/A   Clear
4:55 PM 47.7 °F - 9.1 °F 21% 30.11 in 10.0 mi West 19.6 mph 25.3 mph N/A   Clear
5:15 PM 47.5 °F - 8.1 °F 20% 30.12 in 10.0 mi West 20.7 mph 27.6 mph N/A   Clear
5:35 PM 46.8 °F - 7.9 °F 21% 30.13 in 10.0 mi WSW 18.4 mph 23.0 mph N/A   Clear
5:55 PM 46.6 °F - 7.5 °F 20% 30.14 in 10.0 mi West 16.1 mph 19.6 mph N/A   Clear
6:15 PM 45.7 °F 38.6 °F 6.8 °F 20% 30.15 in 10.0 mi West 17.3 mph 23.0 mph N/A   Clear
6:35 PM 43.0 °F 37.7 °F 7.5 °F 23% 30.16 in 10.0 mi West 9.2 mph - N/A   Clear
6:55 PM 41.9 °F 35.9 °F 9.1 °F 26% 30.16 in 10.0 mi West 10.4 mph - N/A   Clear
7:15 PM 38.8 °F 33.8 °F 10.4 °F 31% 30.16 in 10.0 mi West 6.9 mph - N/A   Clear
7:35 PM 37.6 °F 35.1 °F 10.4 °F 33% 30.17 in 10.0 mi West 3.5 mph - N/A   Clear
7:55 PM 39.7 °F - 9.3 °F 29% 30.19 in 10.0 mi Calm Calm - N/A   Clear
8:15 PM 40.8 °F 35.0 °F 9.0 °F 27% 30.21 in 10.0 mi West 9.2 mph 16.1 mph N/A   Clear
8:35 PM 35.6 °F 29.9 °F 13.3 °F 40% 30.22 in 10.0 mi West 6.9 mph - N/A   Clear
8:55 PM 35.1 °F 27.4 °F 11.8 °F 38% 30.24 in 10.0 mi West 10.4 mph - N/A   Clear
9:15 PM 34.0 °F 31.0 °F 13.6 °F 43% 30.25 in 10.0 mi South 3.5 mph - N/A   Clear
9:35 PM 33.4 °F - 12.9 °F 43% 30.26 in 10.0 mi Calm Calm - N/A   Clear
9:55 PM 33.8 °F - 11.8 °F 40% 30.27 in 10.0 mi Calm Calm - N/A   Clear
10:15 PM 32.2 °F - 13.1 °F 45% 30.28 in 10.0 mi Calm Calm - N/A   Clear
10:35 PM 29.7 °F - 14.7 °F 54% 30.29 in 10.0 mi Calm Calm - N/A   Clear
10:55 PM 28.0 °F - 15.3 °F 59% 30.30 in 10.0 mi Calm Calm - N/A   Clear
11:15 PM 25.7 °F - 15.8 °F 66% 30.30 in 10.0 mi Calm Calm - N/A   Clear
11:35 PM 26.2 °F - 15.6 °F 64% 30.31 in 10.0 mi Calm Calm - N/A   Clear